Погода в Агрызе

Россия / Республика Татарстан     56°31′34″N   52°59′42″E
темп.,
°C
ветер,
м/с
пор.,
м/с
влажн.,
%
обл.,
%
осадки,
мм/ч
давл.,
гПа
погр.,
м
17 мая, вт
вт1700:00+7зюз3591100 0.0 99980
03:00+6зюз2592100 0.0 99998
06:00+9зюз3785100 0.0 999279
09:00+13зюз456970 0.1 9991002
12:00+14зюз346098 0.7 9991382
15:00+15юз2460100 1.3 999876
18:00+11юз6986100 2.1 999391
21:00+9юз2596100 3.6 1000273
18 мая, ср
ср1800:00+8ююз4796100 1.6 1000322
03:00+6ююз3993100 1.8 999336
06:00+8ююз4787100 0.0 1000424
09:00+10юз4674100 0.1 9991015
12:00+12юз4566100 0.3 9991312
15:00+11зюз566895 1.4 9991250
18:00+5сз699093 0.3 1001393
21:00+4ссз61287100 0.3 1003712
19 мая, чт
чт1900:00+5сз498197 0.0 1004782
03:00+3зсз37967 0.1 1004222
06:00+4зсз4682100 0.0 1005381
09:00+7зсз4665100 0.1 10061344
12:00+8з5663100 0.3 10061465
15:00+8з676778 1.2 10061279
18:00+7зсз47765 0.9 1007732
21:00+3зсз229010 0.9 100725
20 мая, пт
пт2000:00+2з228999 0.0 100726
03:00+2з2489100 0.0 100778
06:00+4зсз579184 0.0 1008447
09:00+6з457648 0.3 1008892
12:00+9зсз565697 1.6 10071662
15:00+9сз6763100 3.6 10071395
18:00+6сз68775 0.7 1008817
21:00+2сз4998100 0.7 1008659
21 мая, сб
сб2100:00+2сз51197100 0.5 1007440
03:00+2сз4999100 2.8 1007431
06:00+2сз51197100 1.7 1006519
09:00+2зсз51199100 2.3 1006542
12:00+2зсз51197100 0.6 1006638
15:00+3зсз61297100 1.3 1007656
18:00+2сз61197100 0.3 1008806
21:00+2ссз4897100 0.4 1008845